Time,TemperatureF,DewpointF,PressureIn,WindDirection,WindDirectionDegrees,WindSpeedMPH,WindSpeedGustMPH,Humidity,HourlyPrecipIn,Conditions,Clouds,dailyrainin,SoftwareType,DateUTC
2014-01-18 00:22:00,19.0,14.0,30.17,SW,216,0.0,0.0,81,0.00,,,0.00,,2014-01-18 06:22:00,
2014-01-18 00:42:00,19.0,14.0,30.16,SSW,211,0.0,0.0,81,0.00,,,0.00,,2014-01-18 06:42:00,
2014-01-18 00:52:00,18.0,13.0,30.16,SSW,207,0.0,0.0,82,0.00,,,0.00,,2014-01-18 06:52:00,
2014-01-18 01:12:00,18.0,13.0,30.16,SSW,207,0.0,0.0,82,0.00,,,0.00,,2014-01-18 07:12:00,
2014-01-18 01:22:00,18.0,13.0,30.16,SSW,208,0.0,0.0,82,0.00,,,0.00,,2014-01-18 07:22:00,
2014-01-18 01:42:00,18.0,13.0,30.15,SSW,209,0.0,0.0,82,0.00,,,0.00,,2014-01-18 07:42:00,
2014-01-18 01:52:00,17.0,12.0,30.15,SSW,208,0.0,0.0,82,0.00,,,0.00,,2014-01-18 07:52:00,
2014-01-18 02:11:00,17.0,13.0,30.16,SSW,207,0.0,0.0,83,0.00,,,0.00,,2014-01-18 08:11:00,
2014-01-18 02:21:00,17.0,13.0,30.16,SSW,207,0.0,0.0,83,0.00,,,0.00,,2014-01-18 08:21:00,
2014-01-18 02:42:00,17.0,13.0,30.16,SSW,206,0.0,0.0,84,0.00,,,0.00,,2014-01-18 08:42:00,
2014-01-18 02:52:00,16.0,12.0,30.16,SSW,206,0.0,0.0,84,0.00,,,0.00,,2014-01-18 08:52:00,
2014-01-18 03:12:00,15.0,11.0,30.15,SSW,206,0.0,0.0,85,0.00,,,0.00,,2014-01-18 09:12:00,
2014-01-18 03:22:00,16.0,13.0,30.15,SSW,205,0.0,0.0,86,0.00,,,0.00,,2014-01-18 09:22:00,
2014-01-18 03:43:00,15.0,12.0,30.14,SSW,205,0.0,0.0,87,0.00,,,0.00,,2014-01-18 09:43:00,
2014-01-18 03:53:00,16.0,13.0,30.14,SSW,208,0.0,0.0,86,0.00,,,0.00,,2014-01-18 09:53:00,
2014-01-18 04:23:00,16.0,13.0,30.14,SSW,207,0.0,0.0,86,0.00,,,0.00,,2014-01-18 10:23:00,
2014-01-18 04:42:00,16.0,13.0,30.14,SSW,206,0.0,0.0,86,0.00,,,0.00,,2014-01-18 10:42:00,
2014-01-18 04:53:00,17.0,13.0,30.14,SSW,206,0.0,0.0,85,0.00,,,0.00,,2014-01-18 10:53:00,
2014-01-18 05:11:00,16.0,12.0,30.14,SSW,206,0.0,0.0,85,0.00,,,0.00,,2014-01-18 11:11:00,
2014-01-18 05:22:00,16.0,12.0,30.14,SSW,206,0.0,0.0,84,0.00,,,0.00,,2014-01-18 11:22:00,
2014-01-18 05:42:00,16.0,12.0,30.13,SSW,206,0.0,0.0,84,0.00,,,0.00,,2014-01-18 11:42:00,
2014-01-18 05:52:00,15.0,12.0,30.13,SSW,206,0.0,0.0,86,0.00,,,0.00,,2014-01-18 11:52:00,
2014-01-18 06:11:00,15.0,12.0,30.12,SSW,206,0.0,0.0,87,0.00,,,0.00,,2014-01-18 12:11:00,
2014-01-18 06:22:00,16.0,13.0,30.12,SSW,198,0.0,0.0,86,0.00,,,0.00,,2014-01-18 12:22:00,
2014-01-18 06:42:00,16.0,13.0,30.11,South,190,0.0,0.0,86,0.00,,,0.00,,2014-01-18 12:42:00,
2014-01-18 06:52:00,17.0,14.0,30.11,SSE,165,0.0,0.0,86,0.00,,,0.00,,2014-01-18 12:52:00,
2014-01-18 07:11:00,17.0,14.0,30.09,South,174,0.0,0.0,86,0.00,,,0.00,,2014-01-18 13:11:00,
2014-01-18 07:21:00,18.0,14.0,30.10,SSW,195,0.0,0.0,85,0.00,,,0.00,,2014-01-18 13:21:00,
2014-01-18 07:42:00,18.0,14.0,30.09,South,186,0.0,0.0,85,0.00,,,0.00,,2014-01-18 13:42:00,
2014-01-18 07:52:00,19.0,15.0,30.09,South,190,0.0,0.0,85,0.00,,,0.00,,2014-01-18 13:52:00,
2014-01-18 08:11:00,20.0,16.0,30.08,South,189,0.0,0.0,84,0.00,,,0.00,,2014-01-18 14:11:00,
2014-01-18 08:21:00,21.0,17.0,30.08,SSW,192,0.0,0.0,83,0.00,,,0.00,,2014-01-18 14:21:00,
2014-01-18 08:42:00,22.0,17.0,30.08,South,189,0.0,0.0,82,0.00,,,0.00,,2014-01-18 14:42:00,
2014-01-18 08:52:00,22.0,17.0,30.06,SSE,156,0.0,0.0,80,0.00,,,0.00,,2014-01-18 14:52:00,
2014-01-18 09:11:00,23.0,17.0,30.05,SE,143,2.0,7.0,78,0.00,,,0.00,,2014-01-18 15:11:00,
2014-01-18 09:22:00,24.0,18.0,30.05,South,182,3.0,8.0,76,0.00,,,0.00,,2014-01-18 15:22:00,
2014-01-18 09:43:00,24.0,18.0,30.04,SSE,155,0.0,0.0,76,0.00,,,0.00,,2014-01-18 15:43:00,
2014-01-18 09:53:00,24.0,18.0,30.03,SSE,150,6.0,10.0,77,0.00,,,0.00,,2014-01-18 15:53:00,
2014-01-18 10:13:00,25.0,18.0,30.03,SSE,167,0.0,11.0,75,0.00,,,0.00,,2014-01-18 16:13:00,
2014-01-18 10:23:00,25.0,18.0,30.02,SE,132,2.0,12.0,74,0.00,,,0.00,,2014-01-18 16:23:00,
2014-01-18 10:43:00,26.0,19.0,30.00,SSE,158,6.0,14.0,73,0.00,,,0.00,,2014-01-18 16:43:00,
2014-01-18 10:52:00,26.0,18.0,29.98,ESE,108,6.0,14.0,71,0.00,,,0.00,,2014-01-18 16:52:00,
2014-01-18 11:12:00,27.0,18.0,29.96,SSE,154,6.0,14.0,69,0.00,,,0.00,,2014-01-18 17:12:00,
2014-01-18 11:22:00,27.0,18.0,29.95,SSE,164,7.0,16.0,67,0.00,,,0.00,,2014-01-18 17:22:00,
2014-01-18 11:42:00,28.0,18.0,29.92,South,184,7.0,14.0,67,0.00,,,0.00,,2014-01-18 17:42:00,
2014-01-18 11:52:00,29.0,19.0,29.89,SSE,163,8.0,16.0,66,0.00,,,0.00,,2014-01-18 17:52:00,
2014-01-18 12:12:00,29.0,18.0,29.86,SSE,165,8.0,16.0,64,0.00,,,0.00,,2014-01-18 18:12:00,
2014-01-18 12:22:00,30.0,19.0,29.85,South,180,6.0,13.0,63,0.00,,,0.00,,2014-01-18 18:22:00,
2014-01-18 12:43:00,31.0,19.0,29.82,South,173,8.0,14.0,61,0.00,,,0.00,,2014-01-18 18:43:00,
2014-01-18 12:52:00,31.0,18.0,29.82,SSE,159,6.0,17.0,59,0.00,,,0.00,,2014-01-18 18:52:00,
2014-01-18 13:22:00,33.0,19.0,29.81,SE,142,6.0,15.0,57,0.00,,,0.00,,2014-01-18 19:22:00,
2014-01-18 13:42:00,33.0,19.0,29.80,South,171,5.0,14.0,57,0.00,,,0.00,,2014-01-18 19:42:00,
2014-01-18 13:52:00,34.0,20.0,29.80,South,170,6.0,10.0,56,0.00,,,0.00,,2014-01-18 19:52:00,
2014-01-18 14:11:00,35.0,20.0,29.79,SE,128,6.0,17.0,54,0.00,,,0.00,,2014-01-18 20:11:00,
2014-01-18 14:22:00,35.0,20.0,29.79,South,188,6.0,13.0,54,0.00,,,0.00,,2014-01-18 20:22:00,
2014-01-18 14:42:00,35.0,20.0,29.80,SSW,200,9.0,15.0,54,0.00,,,0.00,,2014-01-18 20:42:00,
2014-01-18 14:52:00,35.0,21.0,29.80,SSE,160,5.0,12.0,56,0.00,,,0.00,,2014-01-18 20:52:00,
2014-01-18 15:12:00,35.0,21.0,29.80,SSW,210,0.0,11.0,57,0.00,,,0.00,,2014-01-18 21:12:00,
2014-01-18 15:22:00,35.0,22.0,29.81,SSW,194,0.0,0.0,59,0.00,,,0.00,,2014-01-18 21:22:00,
2014-01-18 15:43:00,36.0,26.0,29.82,SSW,195,5.0,16.0,68,0.00,,,0.00,,2014-01-18 21:43:00,
2014-01-18 15:53:00,35.0,28.0,29.83,South,175,2.0,12.0,75,0.00,,,0.00,,2014-01-18 21:53:00,
2014-01-18 16:13:00,34.0,30.0,29.84,SSW,213,0.0,10.0,84,0.00,,,0.00,,2014-01-18 22:13:00,
2014-01-18 16:22:00,33.0,30.0,29.83,SW,220,0.0,0.0,87,0.00,,,0.00,,2014-01-18 22:22:00,
2014-01-18 16:43:00,34.0,30.0,29.83,SSW,210,0.0,0.0,86,0.00,,,0.00,,2014-01-18 22:43:00,
2014-01-18 16:53:00,34.0,30.0,29.83,SSW,208,0.0,0.0,86,0.00,,,0.00,,2014-01-18 22:53:00,
2014-01-18 17:11:00,34.0,30.0,29.83,SSW,194,0.0,0.0,86,0.00,,,0.00,,2014-01-18 23:11:00,
2014-01-18 17:22:00,33.0,30.0,29.83,SSW,197,0.0,0.0,88,0.00,,,0.00,,2014-01-18 23:22:00,
2014-01-18 17:42:00,33.0,30.0,29.84,SSW,200,0.0,0.0,88,0.00,,,0.00,,2014-01-18 23:42:00,
2014-01-18 17:52:00,33.0,30.0,29.85,SSW,207,0.0,0.0,88,0.00,,,0.00,,2014-01-18 23:52:00,
2014-01-18 18:11:00,34.0,30.0,29.85,SSW,205,0.0,0.0,86,0.00,,,0.00,,2014-01-19 00:11:00,
2014-01-18 18:21:00,34.0,30.0,29.85,SSW,213,0.0,0.0,85,0.00,,,0.00,,2014-01-19 00:21:00,
2014-01-18 18:42:00,34.0,30.0,29.85,SSW,200,0.0,0.0,84,0.00,,,0.00,,2014-01-19 00:42:00,
2014-01-18 18:52:00,34.0,30.0,29.86,SSW,200,0.0,0.0,84,0.00,,,0.00,,2014-01-19 00:52:00,
2014-01-18 19:11:00,34.0,29.0,29.85,SSW,198,0.0,0.0,83,0.00,,,0.00,,2014-01-19 01:11:00,
2014-01-18 19:21:00,33.0,28.0,29.85,SSW,199,0.0,0.0,83,0.00,,,0.00,,2014-01-19 01:21:00,
2014-01-18 19:42:00,33.0,29.0,29.85,SSW,199,0.0,0.0,84,0.00,,,0.00,,2014-01-19 01:42:00,
2014-01-18 19:52:00,34.0,29.0,29.85,SSW,200,0.0,1.0,83,0.00,,,0.00,,2014-01-19 01:52:00,
2014-01-18 20:12:00,35.0,30.0,29.85,SSW,202,0.0,0.0,81,0.00,,,0.00,,2014-01-19 02:12:00,
2014-01-18 20:22:00,35.0,29.0,29.85,SSW,207,0.0,0.0,79,0.00,,,0.00,,2014-01-19 02:22:00,
2014-01-18 20:42:00,35.0,29.0,29.86,SW,219,0.0,0.0,78,0.00,,,0.00,,2014-01-19 02:42:00,
2014-01-18 20:52:00,36.0,30.0,29.87,WNW,284,2.0,7.0,79,0.00,,,0.00,,2014-01-19 02:52:00,
2014-01-18 21:11:00,37.0,33.0,29.87,West,265,6.0,15.0,86,0.01,,,0.01,,2014-01-19 03:11:00,
2014-01-18 21:22:00,36.0,33.0,29.87,WNW,284,3.0,12.0,90,0.02,,,0.02,,2014-01-19 03:22:00,
2014-01-18 21:43:00,35.0,33.0,29.88,West,281,5.0,10.0,92,0.02,,,0.02,,2014-01-19 03:43:00,
2014-01-18 21:53:00,35.0,33.0,29.87,West,275,1.0,8.0,92,0.02,,,0.02,,2014-01-19 03:53:00,
2014-01-18 22:03:00,-999.0,-99.9,29.88,West,281,3.0,8.0,-999,0.01,,,0.02,,2014-01-19 04:03:00,
2014-01-18 22:23:00,35.0,33.0,29.88,West,275,3.0,10.0,93,0.00,,,0.02,,2014-01-19 04:23:00,
2014-01-18 22:42:00,36.0,34.0,29.88,West,275,6.0,10.0,92,0.00,,,0.02,,2014-01-19 04:42:00,
2014-01-18 22:52:00,36.0,34.0,29.89,WSW,257,8.0,13.0,92,0.00,,,0.02,,2014-01-19 04:52:00,
2014-01-18 23:22:00,35.0,33.0,29.90,West,271,8.0,13.0,93,0.00,,,0.02,,2014-01-19 05:22:00,
2014-01-18 23:43:00,35.0,33.0,29.91,West,271,8.0,13.0,93,0.00,,,0.02,,2014-01-19 05:43:00,
2014-01-18 23:52:00,34.0,32.0,29.91,West,265,9.0,14.0,94,0.00,,,0.02,,2014-01-19 05:52:00,